Retour au catalogue

STARLINK-30430

ActifCommunicationsVLEO
NORAD 57849·PAYLOAD·🇺🇸 United States

Lancé Sep 12, 2023 depuis Vandenberg Space Force Base

Loading…

Prochains Passages (prochaines 24 heures)

TLE

FraisSource: CelesTrak SupGP

Époque: Sep 15, 2026, 03:18 UTC

1 57849C 23141K   26258.13798611  .00029479  00000+0  94793-3 0  2586
2 57849  53.1571 122.9870 0001282  83.3112 142.3913 15.31688356    17

Suivez STARLINK-30430 en temps réel avec AllMySat

Download on the App Store